Location: Shenandoah County Park
(38.9356°N, 78.4524°W)
Time: 13:33:16
(UTC-05:00)

Transit 2A - Pass Details

Date: 19 October 2025
Orbit: 591 x 954 km, 66.7° (Epoch: 07 November)

Event Time Altitude Azimuth Distance (km) Brightness Sun altitude
Rises 19:53:24 0° 237° (WSW) 2,974 10.0 -17.1°
Reaches altitude 10° 19:55:52 10° 249° (WSW) 2,117 9.4 -17.6°
Maximum altitude 20:00:03 29° 310° (NW) 1,311 7.7 -18.4°
Drops below altitude 10° 20:04:39 10° 10° (N) 2,333 8.4 -19.3°
Sets 20:07:30 0° 21° (NNE) 3,334 9.1 -19.8°
